^^
Marion, Virginia Banner
 

Adwolf, VA. Station Historical Data
[ Providing Data Since 6/07/2007 ]
Station Historical Data
Daily Summary for April 21, 2017 Units:  English    Metric   Both
« Previous Day
Next Day »
Daily Weekly Monthly Yearly Custom
  High: Low: Average:
Temperature: 76.4 °F 55.9 °F 64.3 °F
Dew Point: 65.4 °F 53.9 °F 60.2 °F
Humidity: 96% 63% 88%
Wind Speed: 13.8mph 0.0mph 3.3mph
Wind Gust: 13.8mph - -
Wind- - SW
Pressure: 30.03 in 29.88 in -
Precipitation: 0.42 in    
Historical Graphs
 
 
Tabular Data for April 21, 2017
Time Temperature Dew Point Pressure Wind Wind Speed Wind Gust Humidity Rainfall Rate (Hourly) solar Conditions
00:02 59.0 °F 56.0 °F 30.02 in WSW 1.2 mph   90% 0.00 in WeatherDisplay:10.37 W/m2 CLR
00:07 58.9 °F 55.9 °F 30.02 in Calm     90% 0.00 in WeatherDisplay:10.37 W/m2 CLR
00:12 58.7 °F 55.7 °F 30.03 in Calm     90% 0.00 in WeatherDisplay:10.37 W/m2 CLR
00:17 58.5 °F 55.5 °F 30.02 in Calm     90% 0.00 in WeatherDisplay:10.37 W/m2 CLR
00:22 58.3 °F 55.3 °F 30.02 in Calm     90% 0.00 in WeatherDisplay:10.37 W/m2 CLR
00:27 58.1 °F 55.4 °F 30.02 in WSW 1.2 mph 1.2 mph 91% 0.00 in WeatherDisplay:10.37 W/m2 CLR
00:32 57.9 °F 55.2 °F 30.02 in Calm     91% 0.00 in WeatherDisplay:10.37 W/m2 CLR
00:37 57.8 °F 55.1 °F 30.02 in Calm     91% 0.00 in WeatherDisplay:10.37 W/m2 CLR
00:42 57.6 °F 55.0 °F 30.02 in Calm     91% 0.00 in WeatherDisplay:10.37 W/m2 CLR
00:47 57.5 °F 54.9 °F 30.02 in WSW 1.2 mph 1.2 mph 91% 0.00 in WeatherDisplay:10.37 W/m2 CLR
00:52 57.4 °F 55.1 °F 30.02 in WSW 1.2 mph 1.2 mph 92% 0.00 in WeatherDisplay:10.37 W/m2 CLR
00:57 57.4 °F 55.1 °F 30.02 in Calm     92% 0.00 in WeatherDisplay:10.37 W/m2 CLR
01:02 57.3 °F 55.3 °F 30.02 in WSW 1.2 mph 1.2 mph 93% 0.00 in WeatherDisplay:10.37 W/m2 CLR
01:07 57.4 °F 55.4 °F 30.02 in Calm     93% 0.00 in WeatherDisplay:10.37 W/m2 CLR
01:12 57.4 °F 55.4 °F 30.02 in Calm     93% 0.00 in WeatherDisplay:10.37 W/m2 CLR
01:17 57.1 °F 54.8 °F 30.02 in WSW 1.2 mph 1.2 mph 92% 0.00 in WeatherDisplay:10.37 W/m2 CLR
01:22 56.8 °F 54.5 °F 30.02 in Calm     92% 0.00 in WeatherDisplay:10.37 W/m2 CLR
01:27 56.7 °F 54.4 °F 30.02 in WSW 1.2 mph 1.2 mph 92% 0.00 in WeatherDisplay:10.37 W/m2 CLR
01:32 56.6 °F 54.3 °F 30.02 in WSW 2.3 mph 2.3 mph 92% 0.00 in WeatherDisplay:10.37 W/m2 CLR
01:37 56.5 °F 54.2 °F 30.02 in WSW 2.3 mph 2.3 mph 92% 0.00 in WeatherDisplay:10.37 W/m2 CLR
01:42 56.4 °F 54.4 °F 30.02 in WSW 1.2 mph 1.2 mph 93% 0.00 in WeatherDisplay:10.37 W/m2 CLR
01:47 56.3 °F 54.3 °F 30.02 in WSW 1.2 mph 1.2 mph 93% 0.00 in WeatherDisplay:10.37 W/m2 CLR
01:52 56.6 °F 54.9 °F 30.01 in Calm     94% 0.00 in WeatherDisplay:10.37 W/m2 CLR
01:57 56.8 °F 55.1 °F 30.01 in Calm     94% 0.00 in WeatherDisplay:10.37 W/m2 CLR
02:02 56.5 °F 54.5 °F 30.01 in WSW 1.2 mph 1.2 mph 93% 0.00 in WeatherDisplay:10.37 W/m2 CLR
02:07 56.2 °F 53.9 °F 30.02 in WSW 1.2 mph   92% 0.00 in WeatherDisplay:10.37 W/m2 CLR
02:12 56.0 °F 54.0 °F 30.01 in WSW 1.2 mph 1.2 mph 93% 0.00 in WeatherDisplay:10.37 W/m2 CLR
02:17 55.9 °F 53.9 °F 30.01 in WSW 1.2 mph 1.2 mph 93% 0.00 in WeatherDisplay:10.37 W/m2 CLR
02:22 56.0 °F 54.3 °F 30.01 in ESE 3.5 mph 3.5 mph 94% 0.00 in WeatherDisplay:10.37 W/m2 CLR
02:27 56.1 °F 54.4 °F 30.01 in ESE 3.5 mph 3.5 mph 94% 0.00 in WeatherDisplay:10.37 W/m2 CLR
02:32 56.2 °F 54.5 °F 30.00 in ESE 1.2 mph 1.2 mph 94% 0.00 in WeatherDisplay:10.37 W/m2 CLR
02:37 56.3 °F 54.6 °F 30.00 in ESE 2.3 mph 2.3 mph 94% 0.00 in WeatherDisplay:10.37 W/m2 CLR
02:42 56.3 °F 54.6 °F 30.00 in Calm     94% 0.00 in WeatherDisplay:10.37 W/m2 SCT
02:47 56.2 °F 54.2 °F 30.00 in Calm     93% 0.00 in WeatherDisplay:10.37 W/m2 SCT
02:52 56.2 °F 54.5 °F 30.00 in ESE 1.2 mph   94% 0.00 in WeatherDisplay:10.37 W/m2 SCT
02:57 56.3 °F 54.6 °F 30.00 in ESE 1.2 mph 1.2 mph 94% 0.00 in WeatherDisplay:10.37 W/m2 SCT
03:02 56.3 °F 54.6 °F 30.00 in Calm     94% 0.00 in WeatherDisplay:10.37 W/m2 BKN
03:07 56.4 °F 54.7 °F 30.00 in ESE 2.3 mph 2.3 mph 94% 0.00 in WeatherDisplay:10.37 W/m2 BKN
03:12 56.4 °F 54.7 °F 30.00 in ESE 2.3 mph 2.3 mph 94% 0.00 in WeatherDisplay:10.37 W/m2 BKN
03:17 56.5 °F 54.8 °F 30.00 in Calm     94% 0.00 in WeatherDisplay:10.37 W/m2 BKN
03:22 56.6 °F 55.1 °F 30.00 in Calm     95% 0.00 in WeatherDisplay:10.37 W/m2 BKN
03:27 56.8 °F 55.3 °F 30.00 in Calm     95% 0.00 in WeatherDisplay:10.37 W/m2 BKN
03:32 57.0 °F 55.5 °F 30.01 in Calm     95% 0.00 in WeatherDisplay:10.37 W/m2 BKN
03:37 57.2 °F 55.7 °F 30.01 in ESE 1.2 mph 1.2 mph 95% 0.00 in WeatherDisplay:10.37 W/m2 BKN
03:43 57.3 °F 55.8 °F 30.00 in ESE 2.3 mph 2.3 mph 95% 0.00 in WeatherDisplay:10.37 W/m2 SCT
03:48 57.5 °F 56.0 °F 30.00 in ESE 1.2 mph 1.2 mph 95% 0.00 in WeatherDisplay:10.37 W/m2 SCT
03:53 57.7 °F 56.2 °F 30.01 in ESE 1.2 mph   95% 0.00 in WeatherDisplay:10.37 W/m2 SCT
03:54 57.7 °F 56.2 °F 30.00 in Calm     95% 0.00 in WeatherDisplay:10.37 W/m2 SCT
03:59 58.0 °F 56.5 °F 30.01 in ESE 1.2 mph 1.2 mph 95% 0.00 in WeatherDisplay:10.37 W/m2 SCT
04:04 58.6 °F 57.4 °F 30.01 in ESE 3.5 mph 3.5 mph 96% 0.00 in WeatherDisplay:10.37 W/m2 BKN
04:09 59.0 °F 57.8 °F 30.00 in SW 3.5 mph 3.5 mph 96% 0.00 in WeatherDisplay:10.37 W/m2 BKN
04:14 59.3 °F 57.8 °F 30.00 in SW 1.2 mph 1.2 mph 95% 0.00 in WeatherDisplay:10.37 W/m2 BKN
04:19 59.6 °F 57.8 °F 29.99 in SW 2.3 mph 2.3 mph 94% 0.00 in WeatherDisplay:10.37 W/m2 BKN
04:24 60.0 °F 58.2 °F 30.00 in SW 1.2 mph 1.2 mph 94% 0.01 in WeatherDisplay:10.37 W/m2 RA
04:29 60.3 °F 58.2 °F 29.99 in Calm     93% 0.01 in WeatherDisplay:10.37 W/m2 RA
04:34 60.0 °F 57.3 °F 29.99 in Calm     91% 0.01 in WeatherDisplay:10.37 W/m2 OVC
04:39 59.6 °F 57.2 °F 29.99 in SW 2.0 mph 2.0 mph 92% 0.01 in WeatherDisplay:10.37 W/m2 OVC
04:44 59.1 °F 56.7 °F 29.99 in Calm     92% 0.01 in WeatherDisplay:10.37 W/m2 SCT
04:49 58.8 °F 56.7 °F 29.99 in Calm     93% 0.02 in WeatherDisplay:10.37 W/m2 RA
04:54 58.8 °F 57.0 °F 30.00 in Calm     94% 0.02 in WeatherDisplay:10.37 W/m2 RA
04:59 59.0 °F 57.5 °F 30.00 in NW 2.3 mph 2.3 mph 95% 0.02 in WeatherDisplay:10.37 W/m2 SCT
05:04 59.4 °F 57.9 °F 30.00 in WSW 3.5 mph 3.5 mph 95% 0.02 in WeatherDisplay:10.37 W/m2 SCT
05:09 59.7 °F 58.2 °F 30.00 in WSW 3.0 mph 3.0 mph 95% 0.02 in WeatherDisplay:10.37 W/m2 SCT
05:14 60.0 °F 58.5 °F 30.00 in SW 3.5 mph 3.5 mph 95% 0.02 in WeatherDisplay:10.37 W/m2 SCT
05:19 60.2 °F 58.4 °F 30.00 in SW 3.5 mph 3.5 mph 94% 0.02 in WeatherDisplay:10.37 W/m2 SCT
05:24 60.3 °F 58.5 °F 30.00 in SW 1.2 mph 1.2 mph 94% 0.01 in WeatherDisplay:10.37 W/m2 SCT
05:29 60.3 °F 58.5 °F 30.00 in SW 2.3 mph 2.3 mph 94% 0.01 in WeatherDisplay:10.37 W/m2 SCT
05:34 60.3 °F 58.5 °F 30.00 in SW 1.2 mph 1.2 mph 94% 0.01 in WeatherDisplay:10.37 W/m2 SCT
05:39 60.3 °F 58.5 °F 30.00 in Calm     94% 0.01 in WeatherDisplay:10.37 W/m2 SCT
05:44 60.2 °F 58.4 °F 30.00 in SW 2.3 mph 2.3 mph 94% 0.01 in WeatherDisplay:10.37 W/m2 BKN
05:49 60.2 °F 58.4 °F 30.00 in SW 1.2 mph   94% 0.00 in WeatherDisplay:10.37 W/m2 BKN
05:54 60.1 °F 58.3 °F 30.00 in Calm     94% 0.00 in WeatherDisplay:10.37 W/m2 BKN
05:59 60.1 °F 58.3 °F 30.00 in SW 1.2 mph   94% 0.00 in WeatherDisplay:10.37 W/m2 BKN
06:04 60.1 °F 58.3 °F 30.00 in Calm     94% 0.00 in WeatherDisplay:10.37 W/m2 -RA
06:09 60.1 °F 58.3 °F 30.00 in Calm     94% 0.00 in WeatherDisplay:10.37 W/m2 -RA
06:14 60.2 °F 58.7 °F 30.00 in Calm     95% 0.00 in WeatherDisplay:10.37 W/m2 -RA
06:15 60.2 °F 58.7 °F 30.00 in Calm     95% 0.00 in WeatherDisplay:10.37 W/m2 -RA
06:20 60.4 °F 58.9 °F 30.00 in South 2.3 mph 2.3 mph 95% 0.01 in WeatherDisplay:10.37 W/m2 -RA
06:25 60.4 °F 58.9 °F 30.00 in South 1.2 mph 1.2 mph 95% 0.01 in WeatherDisplay:10.37 W/m2 RA
06:30 60.4 °F 58.9 °F 30.00 in WSW 3.0 mph 3.0 mph 95% 0.01 in WeatherDisplay:10.37 W/m2 OVC
06:35 60.5 °F 59.0 °F 30.00 in West 2.3 mph 2.3 mph 95% 0.01 in WeatherDisplay:10.37 W/m2 OVC
06:40 60.6 °F 59.1 °F 30.00 in West 2.3 mph 2.3 mph 95% 0.01 in WeatherDisplay:10.37 W/m2 OVC
06:45 60.7 °F 59.2 °F 30.00 in West 2.3 mph 2.3 mph 95% 0.01 in WeatherDisplay:10.37 W/m2 OVC
06:50 60.7 °F 59.2 °F 30.00 in West 2.3 mph 2.3 mph 95% 0.01 in WeatherDisplay:10.37 W/m2 OVC
06:55 60.8 °F 59.6 °F 30.00 in West 1.2 mph 1.2 mph 96% 0.01 in WeatherDisplay:10.37 W/m2 OVC
07:00 60.9 °F 59.7 °F 30.00 in West 1.2 mph 1.2 mph 96% 0.01 in WeatherDisplay:10.37 W/m2 OVC
07:05 60.9 °F 59.7 °F 30.00 in West 2.3 mph 2.3 mph 96% 0.01 in WeatherDisplay:10.37 W/m2 OVC
07:10 61.0 °F 59.8 °F 30.00 in West 2.3 mph 2.3 mph 96% 0.01 in WeatherDisplay:10.37 W/m2 OVC
07:15 61.1 °F 59.9 °F 30.00 in West 1.2 mph 1.2 mph 96% 0.01 in WeatherDisplay:10.37 W/m2 OVC
07:20 61.1 °F 59.9 °F 30.00 in West 1.0 mph 1.0 mph 96% 0.00 in WeatherDisplay:10.37 W/m2 OVC
07:25 61.1 °F 59.9 °F 30.00 in West 2.3 mph 2.3 mph 96% 0.00 in WeatherDisplay:10.37 W/m2 -RA
07:30 61.2 °F 60.0 °F 30.00 in West 2.3 mph 2.3 mph 96% 0.00 in WeatherDisplay:10.37 W/m2 -RA
07:35 61.2 °F 60.0 °F 30.00 in West 2.3 mph 2.3 mph 96% 0.00 in WeatherDisplay:10.37 W/m2 -RA
07:40 61.3 °F 60.1 °F 30.00 in West 2.3 mph 2.3 mph 96% 0.00 in WeatherDisplay:10.37 W/m2 -RA
07:46 61.5 °F 60.3 °F 30.00 in West 1.2 mph 1.2 mph 96% 0.00 in WeatherDisplay:10.37 W/m2 OVC
07:50 61.5 °F 60.3 °F 30.00 in West 2.3 mph 2.3 mph 96% 0.00 in WeatherDisplay:10.37 W/m2 OVC
07:55 61.7 °F 60.5 °F 30.00 in West 2.3 mph 2.3 mph 96% 0.00 in WeatherDisplay:10.37 W/m2 OVC
08:00 61.8 °F 60.6 °F 30.00 in SW 2.3 mph 2.3 mph 96% 0.01 in WeatherDisplay:10.37 W/m2 RA
08:05 61.9 °F 60.7 °F 30.00 in SW 3.5 mph 3.5 mph 96% 0.01 in WeatherDisplay:10.37 W/m2 RA
08:10 62.1 °F 60.9 °F 30.00 in SW 2.3 mph 2.3 mph 96% 0.01 in WeatherDisplay:10.37 W/m2 OVC
08:15 62.0 °F 60.5 °F 30.01 in SW 3.0 mph 3.0 mph 95% 0.01 in WeatherDisplay:10.37 W/m2 OVC
08:20 62.0 °F 60.5 °F 30.01 in WSW 3.5 mph 3.5 mph 95% 0.01 in WeatherDisplay:10.37 W/m2 OVC
08:26 62.0 °F 60.5 °F 30.01 in WSW 2.3 mph 2.3 mph 95% 0.01 in WeatherDisplay:10.37 W/m2 OVC
08:30 62.0 °F 60.5 °F 30.01 in West 3.5 mph 3.5 mph 95% 0.01 in WeatherDisplay:10.37 W/m2 OVC
08:35 62.0 °F 60.5 °F 30.01 in SW 2.3 mph 2.3 mph 95% 0.01 in WeatherDisplay:10.37 W/m2 OVC
08:40 62.1 °F 60.6 °F 30.01 in SW 2.3 mph 2.3 mph 95% 0.01 in WeatherDisplay:10.37 W/m2 OVC
08:45 62.2 °F 60.7 °F 30.01 in SW 2.3 mph 2.3 mph 95% 0.01 in WeatherDisplay:10.37 W/m2 +RA
08:50 62.3 °F 60.8 °F 30.01 in SW 2.3 mph 2.3 mph 95% 0.01 in WeatherDisplay:10.37 W/m2 +RA
08:55 62.4 °F 60.9 °F 30.01 in WSW 2.3 mph 2.3 mph 95% 0.01 in WeatherDisplay:10.37 W/m2 +RA
09:00 62.4 °F 60.9 °F 30.01 in West 2.3 mph 2.3 mph 95% 0.00 in WeatherDisplay:10.37 W/m2 +RA
09:05 62.5 °F 61.0 °F 30.01 in West 2.3 mph 2.3 mph 95% 0.00 in WeatherDisplay:10.37 W/m2 OVC
09:10 62.6 °F 61.1 °F 30.01 in WSW 2.3 mph 2.3 mph 95% 0.00 in WeatherDisplay:10.37 W/m2 OVC
09:15 62.7 °F 61.2 °F 30.01 in SW 3.5 mph 3.5 mph 95% 0.04 in WeatherDisplay:10.37 W/m2 RA
09:20 62.6 °F 61.1 °F 30.00 in SW 2.3 mph 2.3 mph 95% 0.07 in WeatherDisplay:10.37 W/m2 RA
09:26 62.6 °F 61.1 °F 30.00 in SW 2.3 mph 2.3 mph 95% 0.07 in WeatherDisplay:10.37 W/m2 RA
09:30 62.6 °F 61.1 °F 30.00 in SW 2.3 mph 2.3 mph 95% 0.07 in WeatherDisplay:10.37 W/m2 OVC
09:35 62.7 °F 61.5 °F 30.00 in SW 2.3 mph 2.3 mph 96% 0.07 in WeatherDisplay:10.37 W/m2 OVC
09:41 62.7 °F 61.2 °F 30.01 in SW 3.5 mph 3.5 mph 95% 0.09 in WeatherDisplay:10.37 W/m2 RA
09:45 62.7 °F 61.5 °F 30.01 in West 3.5 mph 3.5 mph 96% 0.13 in WeatherDisplay:10.37 W/m2 -DZ
09:50 62.7 °F 61.5 °F 30.01 in West 2.3 mph 2.3 mph 96% 0.14 in WeatherDisplay:10.37 W/m2 -DZ
09:56 62.7 °F 61.5 °F 30.01 in SW 3.5 mph 3.5 mph 96% 0.14 in WeatherDisplay:10.37 W/m2 -DZ
10:01 62.8 °F 61.6 °F 30.01 in WSW 1.2 mph 1.2 mph 96% 0.14 in WeatherDisplay:10.37 W/m2 -DZ
10:05 63.0 °F 61.8 °F 30.01 in WSW 1.2 mph 1.2 mph 96% 0.14 in WeatherDisplay:10.37 W/m2 OVC
10:11 63.0 °F 61.8 °F 30.01 in West 2.3 mph 2.3 mph 96% 0.14 in WeatherDisplay:10.37 W/m2 OVC
10:15 63.2 °F 62.0 °F 30.01 in West 1.2 mph 1.4 mph 96% 0.10 in WeatherDisplay:10.37 W/m2 OVC
10:20 63.4 °F 62.2 °F 30.01 in WSW 3.5 mph 3.5 mph 96% 0.07 in WeatherDisplay:10.37 W/m2 OVC
10:25 63.5 °F 62.3 °F 30.01 in SW 4.6 mph 4.6 mph 96% 0.07 in WeatherDisplay:10.37 W/m2 -RA
10:30 63.5 °F 62.3 °F 30.00 in West 3.5 mph 3.5 mph 96% 0.07 in WeatherDisplay:10.37 W/m2 -RA
10:35 63.6 °F 62.4 °F 30.00 in SW 3.5 mph 3.5 mph 96% 0.08 in WeatherDisplay:10.37 W/m2 -RA
10:40 63.8 °F 62.6 °F 30.00 in SW 2.3 mph 2.3 mph 96% 0.06 in WeatherDisplay:10.37 W/m2 -RA
10:45 64.2 °F 63.0 °F 30.00 in SSW 3.5 mph 3.5 mph 96% 0.02 in WeatherDisplay:10.37 W/m2 -RA
10:50 64.6 °F 63.4 °F 30.00 in SSW 3.5 mph 3.5 mph 96% 0.01 in WeatherDisplay:10.37 W/m2 -RA
10:55 65.1 °F 63.9 °F 30.00 in SSW 4.6 mph 4.6 mph 96% 0.01 in WeatherDisplay:10.37 W/m2 -RA
11:00 65.5 °F 64.3 °F 30.00 in SW 4.6 mph 4.6 mph 96% 0.01 in WeatherDisplay:10.37 W/m2 -RA
11:05 66.2 °F 65.0 °F 30.00 in WSW 4.0 mph 4.0 mph 96% 0.01 in WeatherDisplay:10.37 W/m2 OVC
11:10 66.6 °F 64.8 °F 29.99 in SW 7.0 mph 7.0 mph 94% 0.01 in WeatherDisplay:10.37 W/m2 OVC
11:15 66.6 °F 64.2 °F 30.00 in SW 6.9 mph 6.9 mph 92% 0.01 in WeatherDisplay:10.37 W/m2 OVC
11:20 66.5 °F 63.8 °F 30.00 in SW 8.1 mph 8.1 mph 91% 0.01 in WeatherDisplay:10.37 W/m2 OVC
11:25 66.5 °F 63.8 °F 30.00 in SSW 8.1 mph 8.1 mph 91% 0.01 in WeatherDisplay:10.37 W/m2 OVC
11:30 66.5 °F 63.8 °F 30.00 in SW 8.1 mph 8.1 mph 91% 0.01 in WeatherDisplay:10.37 W/m2 OVC
11:35 66.6 °F 63.9 °F 30.00 in SW 4.6 mph 4.6 mph 91% 0.00 in WeatherDisplay:10.37 W/m2 OVC
11:40 66.8 °F 64.0 °F 30.00 in WSW 9.2 mph 9.2 mph 91% 0.00 in WeatherDisplay:10.37 W/m2 OVC
11:45 66.9 °F 63.8 °F 30.00 in SW 4.6 mph 4.6 mph 90% 0.00 in WeatherDisplay:10.37 W/m2 OVC
11:51 66.7 °F 63.6 °F 30.00 in SSW 6.0 mph 6.0 mph 90% 0.00 in WeatherDisplay:10.37 W/m2 OVC
11:56 66.7 °F 63.6 °F 30.00 in West 3.5 mph 3.5 mph 90% 0.00 in WeatherDisplay:10.37 W/m2 OVC
12:01 66.8 °F 63.7 °F 29.99 in SW 5.0 mph 5.0 mph 90% 0.00 in WeatherDisplay:10.37 W/m2 OVC
12:06 67.0 °F 63.9 °F 29.99 in WSW 4.6 mph 4.6 mph 90% 0.00 in WeatherDisplay:10.37 W/m2 OVC
12:11 67.3 °F 63.9 °F 30.00 in SW 5.8 mph 5.8 mph 89% 0.00 in WeatherDisplay:10.37 W/m2 OVC
12:16 67.5 °F 64.1 °F 29.99 in West 3.5 mph 3.5 mph 89% 0.00 in WeatherDisplay:10.37 W/m2 OVC
12:21 67.6 °F 63.9 °F 29.99 in WSW 9.0 mph 9.0 mph 88% 0.00 in WeatherDisplay:10.37 W/m2 OVC
12:26 67.7 °F 64.0 °F 29.99 in WSW 10.0 mph 10.0 mph 88% 0.00 in WeatherDisplay:10.37 W/m2 OVC
12:31 67.8 °F 64.1 °F 29.99 in SW 6.9 mph 6.9 mph 88% 0.00 in WeatherDisplay:10.37 W/m2 OVC
12:36 68.0 °F 64.3 °F 29.99 in SSW 5.8 mph 5.8 mph 88% 0.00 in WeatherDisplay:10.37 W/m2 OVC
12:41 68.1 °F 64.4 °F 29.99 in WSW 3.5 mph 3.5 mph 88% 0.00 in WeatherDisplay:10.37 W/m2 OVC
12:46 68.5 °F 64.4 °F 29.99 in West 6.0 mph 6.0 mph 87% 0.00 in WeatherDisplay:10.37 W/m2 OVC
12:51 68.4 °F 63.7 °F 29.99 in West 6.9 mph 6.9 mph 85% 0.00 in WeatherDisplay:10.37 W/m2 OVC
12:56 68.4 °F 64.0 °F 29.99 in SW 8.1 mph 8.1 mph 86% 0.00 in WeatherDisplay:10.37 W/m2 OVC
12:57 68.4 °F 64.0 °F 29.99 in SW 8.1 mph 8.1 mph 86% 0.00 in WeatherDisplay:10.37 W/m2 OVC
13:02 68.5 °F 63.4 °F 29.99 in SW 11.5 mph 11.5 mph 84% 0.00 in WeatherDisplay:10.37 W/m2 OVC
13:07 68.7 °F 63.3 °F 29.99 in WSW 6.9 mph 6.9 mph 83% 0.00 in WeatherDisplay:10.37 W/m2 OVC
13:12 68.9 °F 63.8 °F 29.99 in SW 7.0 mph 7.0 mph 84% 0.00 in WeatherDisplay:10.37 W/m2 OVC
13:17 68.9 °F 63.5 °F 29.98 in WSW 7.0 mph 7.0 mph 83% 0.00 in WeatherDisplay:10.37 W/m2 OVC
13:22 69.2 °F 63.8 °F 29.98 in West 7.0 mph 7.0 mph 83% 0.00 in WeatherDisplay:10.37 W/m2 OVC
13:27 69.6 °F 64.2 °F 29.97 in SSW 6.0 mph 6.0 mph 83% 0.00 in WeatherDisplay:10.37 W/m2 OVC
13:32 70.2 °F 64.4 °F 29.97 in South 3.5 mph 3.5 mph 82% 0.00 in WeatherDisplay:10.37 W/m2 OVC
13:37 70.6 °F 63.7 °F 29.97 in SW 8.1 mph 8.1 mph 79% 0.00 in WeatherDisplay:10.37 W/m2 OVC
13:42 70.7 °F 64.2 °F 29.97 in SSW 6.9 mph 6.9 mph 80% 0.00 in WeatherDisplay:10.37 W/m2 OVC
13:47 70.9 °F 64.4 °F 29.97 in WSW 6.9 mph 6.9 mph 80% 0.00 in WeatherDisplay:10.37 W/m2 OVC
13:52 71.1 °F 64.2 °F 29.97 in SW 4.6 mph 4.6 mph 79% 0.00 in WeatherDisplay:10.37 W/m2 OVC
13:57 71.2 °F 63.6 °F 29.96 in SW 6.0 mph 6.0 mph 77% 0.00 in WeatherDisplay:10.37 W/m2 OVC
14:02 71.6 °F 64.0 °F 29.96 in SW 5.8 mph 5.8 mph 77% 0.00 in WeatherDisplay:10.37 W/m2 OVC
14:07 72.4 °F 65.1 °F 29.95 in SSW 4.0 mph 4.5 mph 78% 0.00 in WeatherDisplay:10.37 W/m2 OVC
14:12 73.3 °F 65.2 °F 29.95 in West 9.0 mph 9.0 mph 76% 0.00 in WeatherDisplay:10.37 W/m2 OVC
14:17 72.9 °F 64.1 °F 29.95 in SSW 11.5 mph 11.5 mph 74% 0.00 in WeatherDisplay:10.37 W/m2 OVC
14:22 73.1 °F 65.4 °F 29.94 in SW 6.0 mph 6.0 mph 77% 0.00 in WeatherDisplay:10.37 W/m2 BKN
14:27 73.8 °F 65.0 °F 29.94 in SW 8.1 mph 8.1 mph 74% 0.00 in WeatherDisplay:10.37 W/m2 BKN
14:32 74.7 °F 65.0 °F 29.94 in WSW 10.4 mph 10.4 mph 72% 0.00 in WeatherDisplay:10.37 W/m2 BKN
14:37 74.4 °F 65.1 °F 29.94 in West 8.1 mph 8.1 mph 73% 0.00 in WeatherDisplay:10.37 W/m2 BKN
14:42 74.3 °F 63.8 °F 29.94 in West 9.2 mph 9.2 mph 70% 0.00 in WeatherDisplay:10.37 W/m2 SCT
14:47 74.4 °F 63.5 °F 29.94 in West 10.4 mph 10.4 mph 69% 0.00 in WeatherDisplay:10.37 W/m2 SCT
14:52 74.6 °F 64.1 °F 29.93 in SSW 7.0 mph 7.0 mph 70% 0.00 in WeatherDisplay:10.37 W/m2 SCT
14:57 75.4 °F 64.5 °F 29.93 in SSW 6.9 mph 6.9 mph 69% 0.00 in WeatherDisplay:10.37 W/m2 SCT
15:02 75.7 °F 64.3 °F 29.92 in West 11.5 mph 11.5 mph 68% 0.00 in WeatherDisplay:10.37 W/m2 BKN
15:07 75.2 °F 63.4 °F 29.92 in SW 10.4 mph 10.4 mph 67% 0.00 in WeatherDisplay:10.37 W/m2 BKN
15:12 75.2 °F 63.9 °F 29.92 in WSW 6.9 mph 6.9 mph 68% 0.00 in WeatherDisplay:10.37 W/m2 BKN
15:17 75.2 °F 64.3 °F 29.92 in WSW 8.1 mph 8.1 mph 69% 0.00 in WeatherDisplay:10.37 W/m2 BKN
15:22 75.2 °F 63.9 °F 29.91 in WSW 11.0 mph 11.0 mph 68% 0.00 in WeatherDisplay:10.37 W/m2 BKN
15:27 74.9 °F 63.6 °F 29.90 in North 13.8 mph 13.8 mph 68% 0.00 in WeatherDisplay:10.37 W/m2 BKN
15:32 75.3 °F 63.5 °F 29.90 in West 8.1 mph 8.1 mph 67% 0.00 in WeatherDisplay:10.37 W/m2 BKN
15:37 75.2 °F 63.0 °F 29.90 in WSW 9.2 mph 9.2 mph 66% 0.00 in WeatherDisplay:10.37 W/m2 BKN
15:42 75.6 °F 63.8 °F 29.90 in WSW 10.4 mph 10.4 mph 67% 0.00 in WeatherDisplay:10.37 W/m2 SCT
15:47 75.8 °F 64.0 °F 29.89 in SSW 6.9 mph 6.9 mph 67% 0.00 in WeatherDisplay:10.37 W/m2 SCT
15:52 76.2 °F 64.8 °F 29.90 in WSW 9.2 mph 9.2 mph 68% 0.00 in WeatherDisplay:10.37 W/m2 SCT
15:57 76.0 °F 63.3 °F 29.90 in SSW 8.1 mph 8.1 mph 65% 0.00 in WeatherDisplay:10.37 W/m2 SCT
16:02 76.4 °F 64.6 °F 29.90 in SW 4.6 mph 4.6 mph 67% 0.00 in WeatherDisplay:10.37 W/m2 SCT
16:07 76.1 °F 62.5 °F 29.89 in West 6.9 mph 6.9 mph 63% 0.00 in WeatherDisplay:10.37 W/m2 SCT
16:12 75.4 °F 62.3 °F 29.89 in WSW 6.9 mph 6.9 mph 64% 0.00 in WeatherDisplay:10.37 W/m2 SCT
16:17 75.2 °F 63.0 °F 29.89 in SW 5.0 mph 5.0 mph 66% 0.00 in WeatherDisplay:10.37 W/m2 SCT
16:22 75.0 °F 62.0 °F 29.89 in SSW 11.5 mph 11.5 mph 64% 0.00 in WeatherDisplay:10.37 W/m2 BKN
16:27 75.1 °F 62.5 °F 29.88 in SW 9.2 mph 9.2 mph 65% 0.00 in WeatherDisplay:10.37 W/m2 BKN
16:28 75.1 °F 62.9 °F 29.88 in West 9.2 mph 9.2 mph 66% 0.00 in WeatherDisplay:10.37 W/m2 BKN
16:33 75.2 °F 63.0 °F 29.88 in WSW 9.0 mph 9.0 mph 66% 0.00 in WeatherDisplay:10.37 W/m2 BKN
16:38 75.0 °F 62.8 °F 29.88 in WSW 8.1 mph 8.1 mph 66% 0.00 in WeatherDisplay:10.37 W/m2 BKN
16:43 75.0 °F 62.8 °F 29.88 in West 10.4 mph 10.4 mph 66% 0.00 in WeatherDisplay:10.37 W/m2 BKN
16:48 74.8 °F 62.6 °F 29.88 in WNW 6.9 mph 6.9 mph 66% 0.00 in WeatherDisplay:10.37 W/m2 BKN
16:53 74.6 °F 62.5 °F 29.88 in WSW 9.2 mph 9.2 mph 66% 0.00 in WeatherDisplay:10.37 W/m2 BKN
16:58 74.7 °F 63.4 °F 29.89 in SSW 9.2 mph 9.2 mph 68% 0.00 in WeatherDisplay:10.37 W/m2 BKN
17:03 75.0 °F 63.3 °F 29.88 in WNW 5.8 mph 5.8 mph 67% 0.00 in WeatherDisplay:10.37 W/m2 SCT
17:08 74.6 °F 61.6 °F 29.90 in NNW 10.4 mph 10.4 mph 64% 0.00 in WeatherDisplay:10.37 W/m2 SCT
17:13 72.3 °F 59.8 °F 29.90 in NW 9.2 mph 9.2 mph 65% 0.00 in WeatherDisplay:10.37 W/m2 SCT
17:18 70.3 °F 60.0 °F 29.90 in North 6.9 mph 6.9 mph 70% 0.00 in WeatherDisplay:10.37 W/m2 SCT
17:23 69.3 °F 59.5 °F 29.90 in NNE 6.9 mph 6.9 mph 71% 0.00 in WeatherDisplay:10.37 W/m2 BKN
17:28 68.8 °F 59.4 °F 29.90 in WNW 4.6 mph 4.6 mph 72% 0.00 in WeatherDisplay:10.37 W/m2 BKN
17:33 68.5 °F 59.5 °F 29.89 in NNE 4.6 mph 4.6 mph 73% 0.00 in WeatherDisplay:10.37 W/m2 BKN
17:38 68.5 °F 59.1 °F 29.90 in North 3.5 mph 3.5 mph 72% 0.00 in WeatherDisplay:10.37 W/m2 BKN
17:43 68.6 °F 59.2 °F 29.90 in NNE 4.6 mph 4.6 mph 72% 0.00 in WeatherDisplay:10.37 W/m2 OVC
17:48 68.7 °F 59.3 °F 29.90 in NNE 3.5 mph 3.5 mph 72% 0.00 in WeatherDisplay:10.37 W/m2 OVC
17:53 69.0 °F 59.6 °F 29.90 in NNE 4.0 mph 4.0 mph 72% 0.00 in WeatherDisplay:10.37 W/m2 OVC
17:58 69.1 °F 58.9 °F 29.91 in NE 3.5 mph 3.5 mph 70% 0.00 in WeatherDisplay:10.37 W/m2 OVC
18:03 69.0 °F 58.8 °F 29.91 in North 3.5 mph 3.5 mph 70% 0.00 in WeatherDisplay:10.37 W/m2 OVC
18:08 68.9 °F 59.1 °F 29.90 in NNE 4.6 mph 4.6 mph 71% 0.00 in WeatherDisplay:10.37 W/m2 OVC
18:09 68.9 °F 59.5 °F 29.90 in NNE 3.5 mph 3.5 mph 72% 0.00 in WeatherDisplay:10.37 W/m2 OVC
18:14 68.8 °F 59.0 °F 29.90 in NNW 1.2 mph 1.2 mph 71% 0.00 in WeatherDisplay:10.37 W/m2 OVC
18:19 68.9 °F 59.5 °F 29.90 in NNW 1.2 mph   72% 0.00 in WeatherDisplay:10.37 W/m2 OVC
18:24 69.0 °F 59.2 °F 29.90 in NNW 1.2 mph 1.2 mph 71% 0.00 in WeatherDisplay:10.37 W/m2 OVC
18:29 69.1 °F 58.9 °F 29.91 in NNW 1.0 mph   70% 0.00 in WeatherDisplay:10.37 W/m2 OVC
18:34 69.3 °F 58.7 °F 29.91 in Calm     69% 0.00 in WeatherDisplay:10.37 W/m2 OVC
18:39 69.4 °F 58.7 °F 29.90 in NNW 1.2 mph   69% 0.00 in WeatherDisplay:10.37 W/m2 OVC
18:44 69.5 °F 59.6 °F 29.90 in NNW 1.0 mph 1.0 mph 71% 0.00 in WeatherDisplay:10.37 W/m2 BKN
18:49 69.5 °F 58.8 °F 29.90 in NNW 2.3 mph 2.3 mph 69% 0.00 in WeatherDisplay:10.37 W/m2 BKN
18:55 69.3 °F 59.5 °F 29.90 in NNW 1.2 mph 1.2 mph 71% 0.00 in WeatherDisplay:10.37 W/m2 BKN
19:00 69.1 °F 59.7 °F 29.90 in NNW 1.2 mph 1.2 mph 72% 0.00 in WeatherDisplay:10.37 W/m2 BKN
19:05 68.9 °F 59.8 °F 29.90 in NNW 2.0 mph 2.0 mph 73% 0.00 in WeatherDisplay:10.37 W/m2 SCT
19:10 68.7 °F 59.7 °F 29.90 in NNW 2.3 mph 2.3 mph 73% 0.00 in WeatherDisplay:10.37 W/m2 SCT
19:15 68.4 °F 59.4 °F 29.90 in Calm     73% 0.00 in WeatherDisplay:10.37 W/m2 SCT
19:20 68.1 °F 59.8 °F 29.91 in NNW 1.2 mph 1.2 mph 75% 0.00 in WeatherDisplay:10.37 W/m2 SCT
19:25 67.9 °F 59.6 °F 29.91 in Calm     75% 0.00 in WeatherDisplay:10.37 W/m2 BKN
19:30 67.8 °F 59.5 °F 29.91 in NNW 1.2 mph 1.2 mph 75% 0.00 in WeatherDisplay:10.37 W/m2 BKN
19:35 67.6 °F 60.5 °F 29.91 in SSW 6.9 mph 6.9 mph 78% 0.00 in WeatherDisplay:10.37 W/m2 BKN
19:40 67.0 °F 60.9 °F 29.92 in South 3.5 mph 3.5 mph 81% 0.00 in WeatherDisplay:10.37 W/m2 BKN
19:45 66.3 °F 60.9 °F 29.92 in West 3.5 mph 3.5 mph 83% 0.00 in WeatherDisplay:10.37 W/m2 BKN
19:50 65.7 °F 61.0 °F 29.92 in West 2.3 mph 2.3 mph 85% 0.02 in WeatherDisplay:10.37 W/m2 RA
19:55 65.1 °F 61.4 °F 29.93 in WSW 3.5 mph 3.5 mph 88% 0.04 in WeatherDisplay:10.37 W/m2 RA
20:00 64.7 °F 61.3 °F 29.92 in WSW 2.3 mph 2.3 mph 89% 0.05 in WeatherDisplay:10.37 W/m2 RA
20:05 64.3 °F 60.9 °F 29.92 in WSW 2.3 mph 2.3 mph 89% 0.07 in WeatherDisplay:10.37 W/m2 -RA
20:10 64.0 °F 61.3 °F 29.92 in South 2.0 mph 2.0 mph 91% 0.09 in WeatherDisplay:10.37 W/m2 -RA
20:15 63.8 °F 61.1 °F 29.92 in South 1.2 mph 1.2 mph 91% 0.09 in WeatherDisplay:10.37 W/m2 -RA
20:20 63.6 °F 60.9 °F 29.92 in South 1.2 mph 1.2 mph 91% 0.09 in WeatherDisplay:10.37 W/m2 -RA
20:25 63.4 °F 61.0 °F 29.93 in Calm     92% 0.09 in WeatherDisplay:10.37 W/m2 OVC
20:30 63.3 °F 61.2 °F 29.93 in South 1.2 mph 1.2 mph 93% 0.09 in WeatherDisplay:10.37 W/m2 OVC
20:35 63.3 °F 61.2 °F 29.94 in SW 3.5 mph 3.5 mph 93% 0.09 in WeatherDisplay:10.37 W/m2 OVC
20:40 63.2 °F 61.1 °F 29.94 in South 4.0 mph 4.0 mph 93% 0.13 in WeatherDisplay:10.37 W/m2 RA
20:45 63.1 °F 61.3 °F 29.93 in South 1.2 mph 1.2 mph 94% 0.15 in WeatherDisplay:10.37 W/m2 RA
20:50 62.9 °F 60.8 °F 29.94 in West 2.3 mph 2.3 mph 93% 0.14 in WeatherDisplay:10.37 W/m2 RA
20:55 62.8 °F 61.0 °F 29.94 in West 1.2 mph   94% 0.13 in WeatherDisplay:10.37 W/m2 RA
21:00 62.7 °F 60.9 °F 29.94 in West 2.3 mph 2.3 mph 94% 0.12 in WeatherDisplay:10.37 W/m2 RA
21:05 62.6 °F 60.8 °F 29.94 in WSW 1.2 mph 1.2 mph 94% 0.10 in WeatherDisplay:10.37 W/m2 OVC
21:10 62.6 °F 60.8 °F 29.94 in West 1.2 mph 1.2 mph 94% 0.08 in WeatherDisplay:10.37 W/m2 OVC
21:11 62.5 °F 60.7 °F 29.94 in West 1.2 mph 1.2 mph 94% 0.08 in WeatherDisplay:10.37 W/m2 OVC
21:16 62.5 °F 60.7 °F 29.94 in Calm     94% 0.08 in WeatherDisplay:10.37 W/m2 OVC
21:21 62.4 °F 60.6 °F 29.94 in Calm     94% 0.08 in WeatherDisplay:10.37 W/m2 OVC
21:26 62.4 °F 60.9 °F 29.94 in Calm     95% 0.08 in WeatherDisplay:10.37 W/m2 OVC
21:31 62.5 °F 61.0 °F 29.94 in West 1.2 mph 1.2 mph 95% 0.08 in WeatherDisplay:10.37 W/m2 OVC
21:36 62.5 °F 61.0 °F 29.94 in West 2.3 mph 2.3 mph 95% 0.08 in WeatherDisplay:10.37 W/m2 OVC
21:41 62.5 °F 61.0 °F 29.95 in West 2.3 mph 2.3 mph 95% 0.04 in WeatherDisplay:10.37 W/m2 OVC
21:46 62.4 °F 60.9 °F 29.94 in West 2.3 mph 2.3 mph 95% 0.06 in WeatherDisplay:10.37 W/m2 RA
21:51 62.3 °F 60.8 °F 29.94 in SSW 2.3 mph 2.3 mph 95% 0.06 in WeatherDisplay:10.37 W/m2 RA
21:56 62.3 °F 60.8 °F 29.94 in Calm     95% 0.05 in WeatherDisplay:10.37 W/m2 OVC
22:01 62.2 °F 60.7 °F 29.94 in SSW 1.2 mph 1.2 mph 95% 0.05 in WeatherDisplay:10.37 W/m2 OVC
22:06 62.2 °F 60.7 °F 29.94 in SSW 1.2 mph 1.2 mph 95% 0.05 in WeatherDisplay:10.37 W/m2 OVC
22:11 62.1 °F 60.6 °F 29.93 in Calm     95% 0.05 in WeatherDisplay:10.37 W/m2 OVC
22:16 62.1 °F 60.6 °F 29.93 in SSW 1.2 mph 1.2 mph 95% 0.05 in WeatherDisplay:10.37 W/m2 OVC
22:21 62.0 °F 60.5 °F 29.93 in SSW 2.3 mph   95% 0.05 in WeatherDisplay:10.37 W/m2 OVC
22:26 61.9 °F 60.4 °F 29.93 in Calm     95% 0.05 in WeatherDisplay:10.37 W/m2 OVC
22:31 61.9 °F 60.4 °F 29.93 in Calm     95% 0.05 in WeatherDisplay:10.37 W/m2 OVC
22:36 61.7 °F 60.2 °F 29.93 in SSW 1.2 mph 1.2 mph 95% 0.05 in WeatherDisplay:10.37 W/m2 OVC
22:41 61.7 °F 60.2 °F 29.93 in SSW 1.0 mph 1.0 mph 95% 0.06 in WeatherDisplay:10.37 W/m2 RA
22:46 61.6 °F 60.1 °F 29.93 in SSW 1.2 mph 1.2 mph 95% 0.01 in WeatherDisplay:10.37 W/m2 RA
22:51 61.6 °F 60.4 °F 29.93 in SSW 1.2 mph   96% 0.01 in WeatherDisplay:10.37 W/m2 OVC
22:56 61.5 °F 60.3 °F 29.93 in SSW 1.0 mph 1.0 mph 96% 0.01 in WeatherDisplay:10.37 W/m2 OVC
23:01 61.5 °F 60.3 °F 29.93 in SSW 1.2 mph 1.2 mph 96% 0.01 in WeatherDisplay:10.37 W/m2 OVC
23:06 61.4 °F 60.2 °F 29.93 in Calm     96% 0.01 in WeatherDisplay:10.37 W/m2 OVC
23:11 61.3 °F 60.1 °F 29.92 in Calm     96% 0.01 in WeatherDisplay:10.37 W/m2 OVC
23:16 61.3 °F 60.1 °F 29.92 in SSW 1.2 mph   96% 0.01 in WeatherDisplay:10.37 W/m2 OVC
23:21 61.2 °F 60.0 °F 29.92 in Calm     96% 0.01 in WeatherDisplay:10.37 W/m2 OVC
23:26 61.2 °F 60.0 °F 29.92 in Calm     96% 0.01 in WeatherDisplay:10.37 W/m2 BKN
23:31 61.1 °F 59.9 °F 29.92 in Calm     96% 0.01 in WeatherDisplay:10.37 W/m2 BKN
23:36 61.1 °F 59.9 °F 29.92 in Calm     96% 0.01 in WeatherDisplay:10.37 W/m2 BKN
23:41 61.0 °F 59.8 °F 29.92 in Calm     96% 0.00 in WeatherDisplay:10.37 W/m2 BKN
23:46 61.0 °F 59.8 °F 29.92 in Calm     96% 0.00 in WeatherDisplay:10.37 W/m2 SCT
23:51 61.0 °F 59.8 °F 29.92 in SSW 1.2 mph   96% 0.00 in WeatherDisplay:10.37 W/m2 SCT
23:56 61.0 °F 59.8 °F 29.92 in Calm     96% 0.00 in WeatherDisplay:10.37 W/m2 SCT
Smyth Weather
Compliments of Weather Underground - 3 mb